Location: Caltech
(34.1382°N, 118.1253°W)
Time: 18:39:09
(UTC-07:00)

Iridium 49 - Visible Passes

Search period start: 05 May 2016 00:00
Search period end: 15 May 2016 00:00
Orbit: 776 x 779 km, 86.4° (Epoch: 05 May)

Date Brightness Start Highest point End Pass type
(mag) Time Alt. Az. Time Alt. Az. Time Alt. Az.
05 May 8.6 00:57:24 10° NE 00:58:24 13° NE 00:58:24 13° NE visible
05 May 7.8 02:36:44 10° NNW 02:38:51 23° NNW 02:38:51 23° NNW visible
06 May 7.8 02:02:59 10° N 02:05:22 28° N 02:05:22 28° N visible
07 May 8.0 01:29:37 10° N 01:31:53 25° NNE 01:31:53 25° NNE visible
07 May 8.4 03:11:57 10° NW 03:12:21 11° NW 03:12:21 11° NW visible
08 May 8.4 00:56:44 10° NNE 00:58:25 17° NE 00:58:25 17° NE visible
08 May 8.1 02:37:11 10° NNW 02:38:53 18° NW 02:38:53 18° NW visible
09 May 8.8 00:24:51 10° NE 00:24:56 10° NE 00:24:56 10° NE visible
09 May 7.8 02:03:09 10° N 02:05:24 25° NNW 02:05:24 25° NNW visible
10 May 7.9 01:29:34 10° N 01:31:56 27° N 01:31:56 27° N visible
11 May 8.1 00:56:22 10° NNE 00:58:29 22° NNE 00:58:29 22° NNE visible
11 May 8.3 02:37:53 10° NW 02:38:57 14° NW 02:38:57 14° NW visible
12 May 8.5 00:23:45 10° NNE 00:25:01 15° NE 00:25:01 15° NE visible
12 May 8.0 02:03:29 10° NNW 02:05:29 22° NNW 02:05:29 22° NNW visible
13 May 7.8 01:29:39 10° N 01:32:03 28° N 01:32:03 28° N visible
14 May 7.9 00:56:13 10° N 00:58:36 27° NNE 00:58:36 27° NNE visible
